STARLING 4

导读

STARLING 4是美国国家航空航天局Starling项目的四颗微型立方体卫星之一,于2023年7月18日由Rocket Lab公司的Electron运载火箭在新西兰玛西亚发射场发射升空。该卫星运行在约571公里高度的低地球轨道,核心任务是测试卫星集群自主通信、定位与编队保持技术,同时还将与SpaceX星链开展太空交通协作测试,为未来深空探测和大规模星座运行积累关键技术经验。

基本信息
目录编号:
57386
目录名称:
STARLING 4
国际标识:
2023-100A
轨道中心:
EARTH
卫星名称:
STARLING 4
卫星全名:
--
卫星状态:
在轨 (已飞行1145 天)
发射日期:
2023-07-18 UTC
国别 :
美国 (US)
星等 :
--
轨道信息
数据来源 国际轨道数据
星历时间: 2026-09-05T14:20:29+0800
13小时前
查看轨道信息
半长轴: 6923.513km
偏心率: 0.0005943
轨道倾角: 99.507°
近地点辐角 206.162°
升交点赤经 284.686°
平近点角 153.930°
近地点: 541.261km
远地点: 549.491km
周期: 95.554分钟
每日圈数: 15.069994
详细信息
使用方式:
暂无
2D轨道图
3D轨道图
轨道高度分析图
轨道倾角分析图
轨道综合分析图
查看轨道综合分析图
交会数据列表
事件ID 空间交会对象 最接近时刻(TCA) 交会距离 交会风险概率(CRP) 交会风险指数(CRI) 操作
CDM_260901-075005-738606-273025
OBJECT B (62730)
2026-09-01T
07:50:25+0000
1.364 km
极远距离
8.793523E-6 低风险 0.54
CDM_260907-231604-875505-738621
2026-09-07T
23:16:47+0000
1.280 km
极远距离
3.560402E-6 低风险 0.46
CDM_260906-092405-738606-494122
2026-09-06T
09:24:10+0000
1.878 km
极远距离
3.412808E-6 低风险 0.46
CDM_260906-232103-949105-738625
2026-09-06T
23:21:27+0000
1.876 km
极远距离
3.111098E-6 低风险 0.45
CDM_260906-074805-738606-494122
2026-09-06T
07:48:30+0000
2.278 km
极远距离
2.124702E-6 低风险 0.42